Preston, Minnesota, United States (55965)
Lat: 43.67N, Lon: 92.08W
Wx Zone: MNZ095
Local Info
Past Weather Observations for Today

NOTE: This archive is for the closest National Weather Service station to Preston. Information may differ from the station used for current weather conditions.

Click here for Long-term Archive

Time Weather Temperature Dewpoint Humidity Pressure Winds Precip Visibility
17:35
Clear
46°F / 8°C 32°F / 0°C 57% 29.83 in
(1010 mb)
NW 21.9 mph
(NW 35 kph)
- 10SM
17:14
Clear
46°F / 8°C 30°F / -1°C 53% 29.83 in
(1010 mb)
NW 28.8 mph
(NW 46 kph)
- 10SM
16:55
Clear
46°F / 8°C 32°F / 0°C 57% 29.8 in
(1009 mb)
NW 28.8 mph
(NW 46 kph)
- 10SM
16:35
Clear
46°F / 8°C 32°F / 0°C 57% 29.8 in
(1009 mb)
NW 29.9 mph
(NW 48 kph)
- 10SM
16:14
Clear
46°F / 8°C 32°F / 0°C 57% 29.8 in
(1009 mb)
NW 27.6 mph
(NW 44 kph)
- 10SM
15:55
Clear
46°F / 8°C 32°F / 0°C 57% 29.8 in
(1009 mb)
NW 31.1 mph
(NW 50 kph)
- 10SM
15:35
Clear
46°F / 8°C 34°F / 1°C 62% 29.77 in
(1008 mb)
NW 25.3 mph
(NW 41 kph)
- 10SM
15:14
Mostly Cloudy
45°F / 7°C 34°F / 1°C 66% 29.77 in
(1008 mb)
NW 29.9 mph
(NW 48 kph)
- 10SM
14:55
Mostly Cloudy
45°F / 7°C 36°F / 2°C 71% 29.77 in
(1008 mb)
NW 25.3 mph
(NW 41 kph)
- 10SM
14:35
Overcast
43°F / 6°C 36°F / 2°C 76% 29.77 in
(1008 mb)
NW 24.2 mph
(NW 39 kph)
- 10SM
14:15
Overcast
41°F / 5°C 36°F / 2°C 81% 29.77 in
(1008 mb)
NW 21.9 mph
(NW 35 kph)
- 10SM
13:55
Overcast
41°F / 5°C 34°F / 1°C 76% 29.74 in
(1007 mb)
NW 23 mph
(NW 37 kph)
- 10SM
13:35
Overcast
41°F / 5°C 34°F / 1°C 76% 29.74 in
(1007 mb)
NW 23 mph
(NW 37 kph)
- 10SM
13:15
Overcast
41°F / 5°C 34°F / 1°C 76% 29.74 in
(1007 mb)
NW 29.9 mph
(NW 48 kph)
- 10SM
12:55
Overcast
39°F / 4°C 34°F / 1°C 81% 29.71 in
(1006 mb)
WNW 25.3 mph
(WNW 41 kph)
- 10SM
12:35
Overcast
41°F / 5°C 36°F / 2°C 81% 29.71 in
(1006 mb)
WNW 32.2 mph
(WNW 52 kph)
- 10SM
12:14
Overcast
43°F / 6°C 37°F / 3°C 81% 29.68 in
(1005 mb)
W 20.7 mph
(W 33 kph)
- 10SM
11:55
Overcast
45°F / 7°C 37°F / 3°C 76% 29.68 in
(1005 mb)
W 24.2 mph
(W 39 kph)
- 10SM
11:35
Overcast
43°F / 6°C 37°F / 3°C 81% 29.65 in
(1004 mb)
SW 12.7 mph
(SW 20 kph)
- 10SM
11:15
Partly Cloudy
43°F / 6°C 37°F / 3°C 81% 29.68 in
(1005 mb)
SW 17.3 mph
(SW 28 kph)
- 10SM
10:54
Partly Cloudy
41°F / 5°C 36°F / 2°C 81% 29.65 in
(1004 mb)
SW 17.3 mph
(SW 28 kph)
- 10SM
10:35
Partly Cloudy
39°F / 4°C 36°F / 2°C 87% 29.68 in
(1005 mb)
SW 19.6 mph
(SW 32 kph)
- 10SM
10:15
Mostly Cloudy
37°F / 3°C 34°F / 1°C 87% 29.68 in
(1005 mb)
SW 20.7 mph
(SW 33 kph)
- 7SM
09:54
Overcast
36°F / 2°C 32°F / 0°C 87% 29.68 in
(1005 mb)
SW 21.9 mph
(SW 35 kph)
- 10SM
09:35
Overcast
36°F / 2°C 32°F / 0°C 87% 29.68 in
(1005 mb)
SW 18.4 mph
(SW 30 kph)
- 7SM
09:15
Overcast
34°F / 1°C 32°F / 0°C 93% 29.71 in
(1006 mb)
SW 18.4 mph
(SW 30 kph)
- 10SM
08:54
Overcast
34°F / 1°C 32°F / 0°C 93% 29.71 in
(1006 mb)
SW 21.9 mph
(SW 35 kph)
- 7SM
08:35
Overcast
32°F / 0°C 30°F / -1°C 93% 29.71 in
(1006 mb)
SW 15 mph
(SW 24 kph)
- 7SM
08:14
Overcast
32°F / 0°C 30°F / -1°C 93% 29.71 in
(1006 mb)
SSE 13.8 mph
(SSE 22 kph)
- 10SM
07:55
Overcast
32°F / 0°C 30°F / -1°C 93% 29.74 in
(1007 mb)
SSE 13.8 mph
(SSE 22 kph)
- 7SM
07:35
Overcast
32°F / 0°C 30°F / -1°C 93% 29.74 in
(1007 mb)
SSE 19.6 mph
(SSE 32 kph)
- 10SM
07:14
Overcast
32°F / 0°C 28°F / -2°C 87% 29.74 in
(1007 mb)
SSE 16.1 mph
(SSE 26 kph)
- 10SM
06:55
Mostly Cloudy
32°F / 0°C 28°F / -2°C 87% 29.74 in
(1007 mb)
SSE 18.4 mph
(SSE 30 kph)
- 10SM
06:35
Overcast
32°F / 0°C 28°F / -2°C 87% 29.74 in
(1007 mb)
S 17.3 mph
(S 28 kph)
- 10SM
06:14
Overcast
Unknown Precip
32°F / 0°C 28°F / -2°C 87% 29.77 in
(1008 mb)
S 15 mph
(S 24 kph)
- 7SM
05:55
Overcast
32°F / 0°C 28°F / -2°C 87% 29.77 in
(1008 mb)
S 15 mph
(S 24 kph)
0.01 in
(0.25 mm)
10SM
05:35
Overcast
Unknown Precip
32°F / 0°C 27°F / -3°C 80% 29.77 in
(1008 mb)
S 16.1 mph
(S 26 kph)
0.01 in
(0.25 mm)
10SM
05:14
Overcast
Unknown Precip
32°F / 0°C 27°F / -3°C 80% 29.77 in
(1008 mb)
S 18.4 mph
(S 30 kph)
- 7SM
04:55
Overcast
Unknown Precip
32°F / 0°C 27°F / -3°C 80% 29.8 in
(1009 mb)
S 20.7 mph
(S 33 kph)
0.01 in
(0.25 mm)
7SM
04:35
Overcast
Unknown Precip
32°F / 0°C 25°F / -4°C 75% 29.83 in
(1010 mb)
S 19.6 mph
(S 32 kph)
- 7SM
04:15
Overcast
30°F / -1°C 21°F / -6°C 69% 29.89 in
(1012 mb)
SW 23 mph
(SW 37 kph)
- 10SM
03:55
Mostly Cloudy
30°F / -1°C 21°F / -6°C 69% 29.83 in
(1010 mb)
S 21.9 mph
(S 35 kph)
- 10SM
03:34
Partly Cloudy
30°F / -1°C 21°F / -6°C 69% 29.89 in
(1012 mb)
S 23 mph
(S 37 kph)
- 10SM
03:14
Partly Cloudy
30°F / -1°C 21°F / -6°C 69% 29.95 in
(1014 mb)
S 21.9 mph
(S 35 kph)
- 10SM
02:55
Clear
30°F / -1°C 19°F / -7°C 64% 29.92 in
(1013 mb)
S 18.4 mph
(S 30 kph)
- 10SM
02:35
Clear
30°F / -1°C 19°F / -7°C 64% 29.92 in
(1013 mb)
S 21.9 mph
(S 35 kph)
- 10SM
02:15
Clear
30°F / -1°C 19°F / -7°C 64% 29.92 in
(1013 mb)
S 21.9 mph
(S 35 kph)
- 10SM
01:55
Clear
30°F / -1°C 19°F / -7°C 64% 29.92 in
(1013 mb)
S 20.7 mph
(S 33 kph)
- 10SM
01:35
Clear
30°F / -1°C 19°F / -7°C 64% 29.95 in
(1014 mb)
S 20.7 mph
(S 33 kph)
- 10SM
01:14
Clear
30°F / -1°C 19°F / -7°C 64% 29.95 in
(1014 mb)
S 23 mph
(S 37 kph)
- 10SM
00:55
Clear
30°F / -1°C 19°F / -7°C 64% 29.98 in
(1015 mb)
S 18.4 mph
(S 30 kph)
- 10SM
00:35
Clear
30°F / -1°C 19°F / -7°C 64% 29.98 in
(1015 mb)
S 17.3 mph
(S 28 kph)
- 10SM
00:14
Clear
30°F / -1°C 18°F / -8°C 59% 29.98 in
(1015 mb)
S 19.6 mph
(S 32 kph)
- 10SM
Time Weather Temperature Dewpoint Humidity Pressure Winds Precip Visibility


Weather for websites

WeatherForYou.com, LLC is not responsible for any damages or problems caused by this service. Current weather conditions are obtained from the closest station including government and personal stations which may have varying degrees of accuracy. Weather forecasts are derived from the NOAA NDFD. Like all things, this site belongs to Jesus Christ... He just trusts me to maintain it. If you have any questions or comments email webmaster@weatherforyou.com

Copyright © 2015, WeatherForYou.com LLC. All rights reserved.